Wind_Speed
10 10 9 9 9 9 8 7 7 7 7 7 8 8 8 8 7 7 7 8 9 9 9 9 9 9 9 10 10 10 11 11 11 11 11 11 12 12 13 13 14 14 15
11 11 11 10 10 9 9 9 8 8 8 9 9 9 9 9 9 10 10 10 11 11 11 11 11 11 11 12 12 13 13 13 13 13 14 14 14 15 15 16 16 16 17
12 12 12 11 10 10 9 9 9 10 10 11 11 11 11 11 11 11 12 12 12 13 13 12 12 13 13 14 14 14 15 15 16 16 16 16 17 17 18 18 18 19 19
12 12 12 12 11 11 11 11 11 11 12 12 12 12 13 13 14 14 14 14 14 14 14 14 15 15 15 15 16 16 17 17 18 18 18 19 19 20 20 20 21 21 21
12 12 12 12 12 11 12 12 12 13 13 13 14 14 14 14 15 15 15 15 15 15 15 16 16 16 16 17 17 18 18 19 20 20 21 21 22 22 22 23 23 24 24
11 12 13 13 13 12 12 13 14 14 14 15 14 14 15 15 16 16 16 16 16 16 16 17 17 17 18 19 19 20 20 21 21 22 23 24 24 25 25 26 26 27 27
11 12 13 14 14 14 14 14 15 15 15 15 16 16 16 16 17 17 18 18 18 19 19 19 19 20 20 21 21 22 22 23 23 24 25 25 26 27 27 28 29 29 30
12 13 13 14 15 15 15 15 15 16 16 17 17 18 18 18 19 19 19 19 20 20 21 21 21 22 22 23 23 23 24 24 25 26 27 27 28 29 29 30 31 31 32
14 14 14 15 15 16 16 16 16 17 17 18 18 18 19 19 20 20 20 20 21 21 22 22 22 23 24 24 25 25 26 27 28 28 29 30 31 32 32 33 33 34 34
14 15 15 15 15 15 16 17 18 18 18 18 19 19 20 20 21 21 22 21 21 22 23 23 23 24 25 26 27 27 28 29 30 30 31 32 33 34 34 35 36 37 37
14 15 15 16 16 17 17 18 19 19 19 20 21 21 21 21 21 22 22 23 23 24 24 25 25 26 28 28 28 29 30 31 31 32 33 34 35 36 37 38 39 40 40
15 15 16 17 18 18 19 19 19 19 20 21 21 21 22 22 22 23 24 24 24 25 26 26 27 29 30 30 30 31 32 33 33 34 35 36 37 38 40 41 42 43 44
15 16 17 18 19 20 20 20 20 20 21 21 22 22 22 23 24 24 25 25 26 26 27 28 29 30 31 32 32 33 34 34 35 36 37 38 39 41 42 43 44 46 46
17 17 18 19 20 20 20 21 21 21 22 22 23 23 24 25 25 26 27 27 28 28 29 30 31 32 33 34 34 35 35 36 37 38 39 40 41 42 44 45 46 47 48
19 19 19 20 21 21 21 21 22 22 23 23 24 25 25 26 26 27 28 29 30 30 30 31 32 33 34 35 36 37 38 38 39 40 41 41 42 43 45 46 47 48 48
20 20 20 21 21 22 22 23 23 24 24 24 25 25 26 27 28 29 29 30 31 31 32 32 33 34 35 36 37 37 38 39 40 41 42 43 44 45 46 47 47 48 49
20 21 22 22 22 23 23 24 25 25 25 26 27 27 28 29 30 30 31 31 32 32 33 33 35 35 36 37 38 39 40 41 42 42 43 44 45 46 47 47 48 49 50
22 22 23 24 24 25 25 25 26 26 27 27 28 29 29 30 31 31 32 32 33 33 34 35 36 37 38 39 40 41 41 42 43 44 45 46 47 48 48 48 49 50 51
23 24 24 25 25 26 26 27 27 27 28 28 29 30 30 31 31 32 32 33 34 35 36 36 37 38 39 40 41 42 42 44 44 45 46 47 49 49 49 50 51 52 53
25 26 26 27 27 27 27 27 28 28 29 30 31 31 31 32 32 33 34 35 35 36 37 38 39 40 40 41 42 43 44 45 46 46 47 48 50 50 51 51 52 54 54
27 27 28 28 28 28 28 29 29 29 30 30 31 32 32 33 33 34 35 36 37 38 39 40 41 41 42 43 44 45 46 46 47 48 48 49 50 51 52 53 54 55 55
29 29 29 28 29 29 29 30 30 30 31 31 32 33 34 34 35 36 37 38 39 40 41 41 42 43 43 44 45 46 47 47 48 49 49 50 51 52 53 53 54 55 55
29 30 30 30 30 31 31 31 31 32 32 33 33 34 35 36 37 38 39 40 41 42 42 43 44 44 45 46 46 46 47 48 49 50 51 51 52 53 53 54 54 54 54
31 31 31 31 32 32 32 33 34 34 34 35 35 36 37 38 39 40 41 41 42 43 44 44 45 45 46 47 48 48 49 50 51 51 51 52 52 53 53 53 53 53 53
32 32 32 33 33 34 34 35 35 36 36 36 37 37 38 39 40 41 42 43 44 44 45 45 46 46 47 48 48 49 50 50 51 51 51 51 52 52 52 52 52 52 52
33 33 34 34 35 35 36 36 37 37 37 38 39 39 40 41 41 42 43 44 44 45 45 45 46 47 48 48 49 49 49 49 50 50 51 51 51 51 51 51 51 51 50
Wind_Direction
231 236 240 243 245 246 251 257 263 269 274 277 280 282 284 287 286 287 288 288 289 289 288 287 285 281 278 276 273 272 272 273 275 275 277 278 281 283 283 283 282 281 281
233 236 239 245 248 247 254 255 261 268 273 275 278 280 282 285 286 287 287 288 287 285 283 281 280 279 278 277 276 274 274 276 277 278 278 278 280 282 283 283 283 283 284
236 239 243 247 245 247 256 257 261 267 272 275 277 280 281 282 283 285 286 285 285 283 281 279 278 278 278 276 276 276 277 277 278 279 280 282 283 285 286 286 286 286 286
242 240 241 245 246 250 255 259 263 267 270 275 278 281 282 282 282 283 284 283 282 281 280 278 277 277 276 275 276 277 277 277 279 280 281 282 284 285 285 285 285 285 286
244 241 242 245 248 255 259 261 264 268 271 274 278 280 281 283 284 284 284 282 282 280 279 278 278 277 277 277 277 278 278 278 279 280 281 283 284 284 285 285 285 285 286
246 244 245 249 253 259 262 264 265 267 271 274 276 280 282 284 284 285 285 283 282 281 279 279 279 278 278 278 278 279 279 279 280 281 282 283 284 284 285 285 285 285 286
249 249 251 253 256 260 264 267 269 269 272 275 278 279 282 284 285 285 284 282 282 280 279 278 278 278 278 279 279 280 280 280 280 281 282 283 284 284 284 284 285 285 286
253 254 257 258 259 261 266 269 271 271 273 275 279 280 281 283 284 285 285 282 281 281 279 279 279 279 279 280 281 282 283 282 282 282 283 284 285 285 285 285 285 286 287
255 257 261 264 265 266 267 269 271 273 274 277 278 278 281 282 283 284 284 283 283 283 281 280 280 280 282 283 283 283 283 283 283 283 285 285 285 286 286 286 286 286 287
258 260 264 267 268 270 271 271 272 274 278 279 280 281 283 283 283 284 285 285 285 285 284 283 283 284 284 285 284 283 283 283 284 284 285 286 286 287 287 287 286 287 287
262 262 264 267 269 271 274 276 276 277 278 281 282 283 283 283 285 287 288 288 287 286 284 284 285 285 286 286 286 286 285 285 286 286 286 287 287 288 289 289 289 289 289
267 265 266 267 271 274 277 279 280 280 280 282 283 283 283 284 286 288 288 289 288 287 286 286 286 287 287 287 287 287 287 287 288 288 288 287 288 289 290 290 290 290 290
269 269 270 272 275 276 277 279 280 281 282 283 285 285 285 286 286 287 288 288 288 287 287 287 288 288 288 288 289 289 289 289 289 289 289 289 289 289 289 289 290 290 290
270 272 273 274 276 278 279 281 282 283 283 284 285 286 287 288 288 288 288 289 290 289 289 289 290 290 290 290 289 289 289 289 289 290 291 290 290 291 291 290 290 290 290
273 273 275 277 278 279 280 282 284 284 284 285 286 287 288 289 289 290 289 290 291 291 290 290 291 291 291 290 290 290 291 291 291 292 292 292 292 292 292 291 291 291 290
275 275 276 279 280 281 280 281 283 285 285 286 287 288 290 291 291 291 291 291 292 292 291 291 292 292 293 292 292 291 292 292 292 292 292 292 293 293 293 293 293 292 292
275 277 277 278 280 282 282 282 284 285 286 287 288 289 290 292 292 292 292 292 293 293 292 292 293 293 294 293 293 293 292 292 292 293 293 293 294 294 294 294 294 294 293
274 276 278 279 280 282 283 284 285 286 287 289 290 291 291 292 293 293 293 294 294 294 294 294 294 294 294 294 295 294 294 294 294 294 294 294 295 295 296 295 295 295 295
276 277 279 281 282 283 284 285 286 287 288 289 290 291 292 293 293 294 294 294 294 294 295 295 295 295 295 296 296 295 295 295 295 295 296 296 296 296 296 296 296 296 297
278 279 280 282 283 284 285 286 287 289 290 290 291 292 292 293 294 294 295 296 296 296 296 296 296 296 296 297 297 297 297 297 297 297 296 296 296 297 297 297 297 297 297
278 279 281 282 282 283 285 287 288 290 291 291 291 291 292 293 294 295 296 297 297 297 297 297 297 297 297 297 297 298 298 298 298 298 297 297 297 297 297 297 298 298 298
278 280 280 281 282 284 286 287 289 291 292 293 293 292 293 293 295 296 296 297 298 299 299 299 298 298 298 298 298 298 298 298 299 299 299 299 299 299 299 299 299 299 299
278 279 279 280 282 284 285 287 289 291 292 294 294 294 294 295 296 296 297 298 299 299 299 299 299 299 299 299 299 299 299 299 300 300 300 300 300 300 300 300 300 300 300
278 278 278 280 281 283 285 288 289 290 292 293 294 295 295 296 297 298 299 300 300 300 300 299 299 299 299 299 299 299 299 300 300 301 301 301 301 301 301 300 300 300 300
279 279 279 280 281 283 285 287 288 289 291 292 294 295 297 298 299 299 300 300 301 301 300 300 300 300 300 300 300 300 301 301 301 302 301 302 302 301 301 300 301 301 301
280 280 280 280 281 283 284 286 287 289 290 292 293 295 296 298 299 300 301 301 301 301 301 301 301 301 301 301 302 302 302 302 302 302 302 303 303 303 302 302 302 302 302
Height
5865 5865 5866 5866 5867 5867 5867 5867 5867 5867 5866 5866 5865 5865 5864 5863 5862 5861 5861 5860 5859 5859 5858 5858 5857 5856 5856 5855 5855 5855 5855 5855 5854 5854 5853 5852 5851 5850 5849 5848 5847 5847 5846
5862 5863 5863 5864 5864 5865 5865 5865 5865 5865 5864 5864 5863 5862 5862 5861 5860 5859 5858 5857 5857 5856 5855 5855 5854 5853 5853 5853 5852 5852 5852 5851 5851 5850 5849 5848 5848 5847 5846 5844 5843 5842 5841
5859 5860 5861 5861 5861 5862 5862 5862 5862 5862 5862 5861 5860 5860 5859 5858 5857 5856 5855 5854 5853 5852 5852 5851 5851 5850 5849 5849 5849 5848 5848 5847 5847 5846 5845 5844 5843 5842 5841 5840 5839 5838 5836
5856 5857 5858 5858 5858 5859 5859 5859 5859 5859 5858 5858 5857 5856 5856 5855 5854 5853 5851 5850 5849 5848 5848 5847 5847 5846 5846 5845 5845 5844 5844 5843 5842 5842 5841 5840 5838 5837 5836 5835 5834 5832 5831
5853 5854 5855 5855 5855 5856 5856 5856 5856 5855 5855 5854 5854 5853 5852 5851 5850 5848 5847 5846 5845 5844 5843 5843 5842 5842 5841 5841 5840 5840 5839 5838 5837 5837 5836 5835 5833 5832 5830 5829 5828 5826 5825
5850 5851 5851 5852 5852 5852 5852 5852 5852 5852 5851 5850 5850 5849 5848 5847 5845 5844 5842 5841 5840 5839 5839 5838 5837 5837 5836 5836 5835 5834 5834 5833 5832 5831 5830 5829 5827 5826 5824 5822 5821 5820 5818
5847 5847 5848 5848 5848 5848 5848 5848 5848 5847 5847 5846 5845 5845 5843 5842 5841 5839 5838 5836 5835 5834 5833 5833 5832 5831 5831 5830 5829 5829 5828 5827 5826 5824 5823 5822 5820 5819 5817 5815 5813 5812 5810
5844 5844 5844 5844 5844 5844 5844 5844 5843 5843 5843 5842 5841 5840 5839 5837 5836 5834 5833 5831 5830 5829 5828 5827 5826 5826 5825 5824 5823 5822 5821 5820 5818 5817 5816 5814 5812 5811 5809 5807 5805 5803 5801
5840 5840 5840 5840 5840 5840 5840 5839 5839 5838 5838 5837 5836 5835 5834 5832 5831 5829 5828 5826 5825 5824 5822 5821 5820 5819 5818 5817 5817 5816 5814 5813 5811 5809 5807 5805 5803 5801 5799 5797 5795 5793 5791
5836 5836 5836 5836 5836 5836 5835 5835 5834 5834 5833 5832 5831 5830 5828 5827 5825 5824 5822 5821 5819 5818 5817 5815 5814 5813 5811 5810 5809 5808 5806 5805 5803 5801 5799 5797 5794 5792 5789 5787 5785 5782 5780
5832 5832 5832 5831 5831 5831 5830 5830 5829 5828 5827 5826 5825 5824 5823 5821 5820 5818 5816 5815 5813 5812 5810 5809 5807 5806 5804 5802 5801 5799 5798 5796 5794 5792 5789 5787 5784 5781 5778 5775 5773 5770 5768
5827 5827 5827 5827 5826 5826 5825 5824 5823 5822 5822 5820 5819 5818 5817 5815 5814 5812 5811 5809 5807 5805 5804 5802 5800 5798 5796 5794 5792 5790 5788 5786 5784 5782 5779 5776 5773 5770 5767 5764 5761 5757 5754
5823 5822 5822 5822 5821 5820 5820 5819 5818 5817 5816 5815 5813 5812 5811 5809 5807 5806 5804 5802 5800 5798 5796 5794 5792 5790 5788 5785 5783 5780 5778 5775 5773 5770 5768 5765 5762 5758 5755 5752 5748 5744 5741
5818 5817 5817 5816 5815 5814 5814 5813 5812 5811 5810 5808 5807 5806 5804 5802 5801 5799 5797 5795 5792 5790 5788 5786 5783 5781 5778 5776 5773 5770 5767 5765 5762 5759 5756 5753 5749 5746 5742 5738 5734 5731 5727
5812 5811 5811 5810 5809 5809 5808 5807 5806 5805 5803 5802 5801 5799 5798 5796 5794 5791 5789 5787 5784 5782 5780 5777 5775 5772 5769 5766 5763 5760 5757 5753 5750 5747 5743 5740 5736 5732 5728 5724 5720 5716 5712
5806 5806 5805 5804 5803 5803 5802 5801 5799 5798 5797 5795 5794 5792 5790 5788 5786 5783 5781 5778 5776 5773 5771 5768 5765 5762 5759 5755 5752 5749 5745 5742 5738 5735 5731 5727 5723 5719 5715 5710 5706 5701 5697
5800 5799 5799 5798 5797 5796 5795 5794 5793 5791 5789 5788 5786 5784 5782 5780 5777 5775 5772 5770 5767 5764 5761 5758 5755 5752 5748 5745 5741 5738 5734 5730 5726 5722 5719 5714 5710 5706 5701 5697 5692 5687 5682
5794 5793 5792 5792 5791 5789 5788 5787 5785 5784 5782 5780 5778 5776 5774 5771 5769 5766 5763 5760 5758 5755 5751 5748 5744 5741 5737 5734 5730 5726 5722 5718 5714 5710 5705 5701 5696 5691 5687 5682 5677 5672 5667
5787 5787 5786 5785 5783 5782 5780 5779 5777 5776 5774 5772 5770 5768 5765 5762 5760 5757 5754 5751 5748 5745 5741 5738 5734 5730 5726 5722 5718 5714 5710 5706 5701 5696 5692 5687 5682 5677 5672 5667 5662 5657 5651
5780 5779 5778 5777 5776 5774 5773 5771 5769 5767 5765 5763 5761 5759 5756 5754 5751 5748 5744 5741 5738 5734 5731 5727 5723 5719 5715 5711 5706 5702 5698 5693 5688 5683 5678 5673 5668 5663 5658 5652 5647 5641 5636
5772 5771 5770 5769 5767 5766 5764 5763 5761 5759 5757 5754 5752 5749 5747 5744 5741 5738 5735 5731 5727 5724 5720 5716 5712 5707 5703 5698 5694 5689 5685 5680 5675 5670 5664 5659 5654 5648 5643 5637 5631 5625 5619
5763 5762 5761 5760 5759 5757 5756 5754 5752 5750 5747 5745 5742 5740 5737 5734 5731 5728 5724 5720 5716 5712 5708 5704 5700 5695 5690 5686 5681 5676 5671 5666 5661 5656 5650 5645 5639 5633 5627 5621 5615 5609 5603
5754 5753 5752 5751 5750 5748 5747 5745 5743 5740 5738 5735 5732 5730 5727 5724 5720 5717 5713 5709 5705 5700 5696 5691 5687 5682 5677 5672 5667 5662 5657 5652 5647 5641 5636 5630 5624 5618 5612 5606 5600 5594 5587
5745 5744 5743 5742 5740 5739 5737 5735 5733 5731 5728 5725 5722 5719 5716 5713 5709 5706 5702 5697 5693 5688 5684 5679 5674 5669 5664 5659 5654 5649 5643 5638 5632 5627 5621 5615 5609 5603 5597 5591 5585 5578 5572
5735 5734 5733 5732 5730 5729 5727 5725 5723 5720 5718 5715 5712 5709 5705 5702 5698 5694 5689 5685 5680 5676 5671 5666 5661 5656 5651 5645 5640 5635 5629 5624 5618 5612 5606 5600 5595 5588 5582 5576 5570 5564 5557
5725 5724 5723 5721 5720 5718 5716 5714 5712 5709 5707 5704 5701 5698 5694 5690 5686 5682 5677 5672 5668 5663 5658 5653 5648 5642 5637 5632 5626 5621 5615 5609 5604 5598 5592 5586 5580 5574 5568 5562 5555 5549 5543